Tracking 23758 objects as of 28-Oct-2021
HD Live streaming from Space Station
objects crossing your sky now

SL-8 DEB

Track SL-8 DEB now!
10-day predictions


NORAD ID: 21137
Int'l Code: 1991-009P
Perigee: 1,487.2 km
Apogee: 1,729.3 km
Inclination: 74.0 °
Period: 118.2 minutes
Semi major axis: 7979 km
RCS: 0.3349 m2 (medium)
Launch date: February 12, 1991
Source: Commonwealth of Independent States (former USSR) (CIS)
Launch site: PLESETSK MISSILE AND SPACE COMPLEX (PKMTR)

Note: This is SATELLITE DEBRIS
aabbcc
Your satellite tracking list
Your tracking list is empty




NASA's NSSDC Master Catalog

Two Line Element Set (TLE):
1 21137U 91009P   21300.51970438 -.00000052  00000-0 -35601-3 0  9993
2 21137  74.0456 207.3416 0151681 225.9278 308.8294 12.18034399364290
Source of the keplerian elements: AFSPC